Current weather by "City, St" or "zip code"  
 

Current Conditions: Pottstown, Pottstown Limerick Airport, PA

Fog


64.0 F

Last Updated on May 21 2022, 2:54 am EDT
Humidity: 100%
Wind Speed: NE 3.5 mph
Barometer 29.95 in
Dewpoint: 64.0 F
Visibility: 0.25 mi
Precip: --
Heat Index: NA
Wind Chill: NA
Current conditions at:

Pottstown, Pottstown Limerick Airport, PA (KPTW)

Lat: 40.23802 Lon: 75.55487

Local Radar Image active severe weather and emergency alerts image image weather storm and storm spotter reports image weather observation monitoring service image
Local
Radar
Active
Alerts
Storm Reports Obs
Monitoring

Sign-up For Email & Text Message Weather Alert Notification Services



Advertise Here

Observation History for Pottstown, Pottstown Limerick Airport, PA


Time Wind
(mph)
Vis
(mi)
Weather Precip (in) Temperature (F) Relative
Humidity
Wind
Chill
(F)
Heat
Index
(F)
Pressure
Air Dwpt altimeter
(in)
sea level
(mb)
Rmks
2:54 am EDT NE 3.5 0.25 Fog -- 64.0 64.0 100% NA NA 29.95 1013.7
1:54 am EDT NE 3.5 0.25 Fog -- 65.0 64.9 100% NA NA 29.93 1013.1
12:54 am EDT N 0.0 0.50 Fog -- 65.0 64.9 100% NA NA 29.94 1013.2
11:54 pm EDT NE 3.5 1.25 Fog/Mist -- 65.0 64.9 100% NA NA 29.93 1013.0
10:54 pm EDT E 3.5 7.00 Overcast -- 66.0 64.9 96% NA NA 29.93 1013.1
9:54 pm EDT 4.6 10.00 Fair -- 66.0 66.0 100% NA NA 29.92 1012.9
8:54 pm EDT NE 3.5 9.00 Fair -- 68.0 66.9 96% NA NA 29.91 1012.4
7:54 pm EDT N 0.0 10.00 Fair -- 69.0 66.9 93% NA NA 29.90 1012.0
5:54 pm EDT E 3.5 10.00 Fair Trace 69.0 64.9 87% NA NA 29.89 1011.8
4:54 pm EDT 3.5 10.00 Light Rain 00.02 66.0 64.0 93% NA NA 29.90 1012.2
3:54 pm EDT N 0.0 5.00 Thunderstorm Light Rain Fog/Mist 00.54 65.0 62.1 90% NA NA 29.91 1012.7
2:54 pm EDT 3.5 G 19.6 10.00 Thunderstorm Trace 74.0 63.0 69% NA NA 29.89 1011.8
11:54 am EDT 3.5 7.00 Light Rain 00.01 71.0 64.9 81% NA NA 29.93 1013.1
10:54 am EDT 4.6 9.00 Overcast -- 69.0 62.1 78% NA NA 29.95 1013.6
9:54 am EDT E 4.6 8.00 A Few Clouds Trace 66.0 61.0 84% NA NA 29.94 1013.6
8:54 am EDT N 0.0 7.00 Mostly Cloudy Trace 63.0 59.0 87% NA NA 29.97 1014.3
7:54 am EDT E 4.6 7.00 Fair -- 60.0 57.9 93% 60 NA 29.94 1013.4
5:54 am EDT N 0.0 7.00 Fair -- 53.0 52.0 96% NA NA 29.90 1012.1
4:54 am EDT N 0.0 7.00 Fair -- 54.0 53.1 97% NA NA 29.87 1011.1
3:54 am EDT NE 3.5 9.00 Fair -- 55.0 53.1 93% NA NA 29.85 1010.5

Regional Weather Observation


Pottstown, Pottstown Limerick Airport, PA (KPTW)

Fog
64.0 F

Allentown Queen City Municipal Airport, PA (KXLL)

Fog
64.0 F

Quakertown Airport, PA (KUKT)

Fog/Mist
64.0 F

Lehighton Jake Arner Memorial Airport, PA (K22N)

Fog
64.0 F

Allentown, Lehigh Valley International Airport, PA (KABE)

Fog
65.0 F

Pennridge Airport, PA (KCKZ)

Fog
64.0 F

Advertise Here


Advertise Here